Wetterdaten: Dienstag, 11.02.2014
Datum Zeit Temperatur Luftfeuchte Luftdruck Regen Wind Richtung Richtung Taupunkt Windchill Windben
11.02.2014 00:00 4,6 C 62 % 1002,1 hPa 0,0 l/m 9,3 km/h (2 Bft) W-SW 247 -2,0 C 0,8 C 7,9 km/h (2 Bft)
11.02.2014 00:05 4,4 C 63 % 1002,4 hPa 0,0 l/m 8,4 km/h (2 Bft) W-SW 247 -2,0 C 1,6 C 10,6 km/h (2 Bft)
11.02.2014 00:10 4,2 C 66 % 1002,4 hPa 0,0 l/m 7,6 km/h (2 Bft) S 180 -1,6 C 1,8 C 8,4 km/h (2 Bft)
11.02.2014 00:15 4,0 C 68 % 1002,4 hPa 0,0 l/m 7,7 km/h (2 Bft) S 180 -1,4 C 1,4 C 7,7 km/h (2 Bft)
11.02.2014 00:20 3,9 C 71 % 1002,4 hPa 0,0 l/m 8,2 km/h (2 Bft) S-SO 157 -0,9 C 0,2 C 15,8 km/h (3 Bft)
11.02.2014 00:25 3,7 C 72 % 1002,6 hPa 0,0 l/m 8,7 km/h (2 Bft) S-SO 157 -0,9 C -0,5 C 8,9 km/h (2 Bft)
11.02.2014 00:30 3,6 C 73 % 1002,6 hPa 0,0 l/m 7,7 km/h (2 Bft) S 180 -0,8 C 0,3 C 7,7 km/h (2 Bft)
11.02.2014 00:35 3,7 C 75 % 1002,6 hPa 0,0 l/m 6,9 km/h (2 Bft) S 180 -0,3 C 1,2 C 15,8 km/h (3 Bft)
11.02.2014 00:40 3,6 C 75 % 1002,6 hPa 0,0 l/m 6,6 km/h (2 Bft) S 180 -0,4 C 1,5 C 7,1 km/h (2 Bft)
11.02.2014 00:45 3,6 C 76 % 1002,7 hPa 0,0 l/m 6,4 km/h (2 Bft) S 180 -0,2 C 1,6 C 7,6 km/h (2 Bft)
11.02.2014 00:50 3,5 C 77 % 1002,7 hPa 0,0 l/m 5,1 km/h (1 Bft) S-SO 157 -0,1 C 2,0 C 3,5 km/h (1 Bft)
11.02.2014 00:55 3,5 C 78 % 1002,7 hPa 0,0 l/m 4,8 km/h (1 Bft) SO 135 0,0 C 2,0 C 7,7 km/h (2 Bft)
11.02.2014 01:00 3,3 C 78 % 1002,7 hPa 0,0 l/m 5,5 km/h (1 Bft) O-SO 112 -0,2 C 1,7 C 6,6 km/h (2 Bft)
11.02.2014 01:05 3,3 C 79 % 1002,8 hPa 0,0 l/m 5,6 km/h (1 Bft) O-SO 112 0,0 C 1,7 C 4,5 km/h (1 Bft)
11.02.2014 01:10 3,2 C 79 % 1002,8 hPa 0,0 l/m 5,0 km/h (1 Bft) O-SO 112 -0,1 C 1,9 C 5,5 km/h (1 Bft)
11.02.2014 01:15 3,2 C 80 % 1002,8 hPa 0,0 l/m 5,5 km/h (1 Bft) S 180 0,1 C 1,7 C 8,4 km/h (2 Bft)
11.02.2014 01:20 3,0 C 82 % 1002,8 hPa 0,0 l/m 6,8 km/h (2 Bft) SO 135 0,2 C 0,9 C 7,4 km/h (2 Bft)
11.02.2014 01:25 3,0 C 83 % 1003,4 hPa 0,0 l/m 6,6 km/h (2 Bft) S-SO 157 0,4 C 1,1 C 7,1 km/h (2 Bft)
11.02.2014 01:30 3,0 C 83 % 1003,4 hPa 0,0 l/m 6,6 km/h (2 Bft) S-SO 157 0,4 C 1,1 C 16,9 km/h (3 Bft)
11.02.2014 01:35 3,1 C 83 % 1003,4 hPa 0,0 l/m 7,2 km/h (2 Bft) SO 135 0,5 C 0,5 C 7,9 km/h (2 Bft)
11.02.2014 01:40 3,2 C 84 % 1003,4 hPa 0,0 l/m 7,7 km/h (2 Bft) O-SO 112 0,8 C 0,3 C 7,1 km/h (2 Bft)
11.02.2014 01:45 3,3 C 84 % 1003,5 hPa 0,0 l/m 7,2 km/h (2 Bft) S-SO 157 0,9 C 0,9 C 7,6 km/h (2 Bft)
11.02.2014 01:50 3,2 C 83 % 1003,5 hPa 0,0 l/m 7,6 km/h (2 Bft) S-SO 157 0,6 C 0,5 C 12,2 km/h (2 Bft)
11.02.2014 01:55 3,2 C 83 % 1003,5 hPa 0,0 l/m 7,9 km/h (2 Bft) S 180 0,6 C 0,1 C 14,0 km/h (3 Bft)
11.02.2014 02:00 3,2 C 83 % 1003,5 hPa 0,0 l/m 8,0 km/h (2 Bft) S 180 0,6 C 0,0 C 17,4 km/h (3 Bft)
11.02.2014 02:05 3,2 C 83 % 1003,7 hPa 0,0 l/m 7,2 km/h (2 Bft) O-SO 112 0,6 C 0,9 C 6,9 km/h (2 Bft)
11.02.2014 02:10 3,2 C 83 % 1003,7 hPa 0,0 l/m 6,0 km/h (2 Bft) O-SO 112 0,6 C 1,9 C 7,7 km/h (2 Bft)
11.02.2014 02:15 3,2 C 83 % 1003,7 hPa 0,0 l/m 5,6 km/h (1 Bft) S-SO 157 0,6 C 2,1 C 3,7 km/h (1 Bft)
11.02.2014 02:20 3,0 C 83 % 1003,7 hPa 0,0 l/m 5,6 km/h (1 Bft) S 180 0,4 C 2,1 C 7,4 km/h (2 Bft)
11.02.2014 02:25 2,9 C 85 % 1003,9 hPa 0,0 l/m 5,8 km/h (2 Bft) O-NO 67 0,6 C 2,1 C 5,6 km/h (1 Bft)
11.02.2014 02:30 2,8 C 85 % 1003,9 hPa 0,0 l/m 6,4 km/h (2 Bft) S-SO 157 0,5 C 1,9 C 7,7 km/h (2 Bft)
11.02.2014 02:35 3,1 C 84 % 1003,9 hPa 0,0 l/m 5,8 km/h (2 Bft) SO 135 0,7 C 2,2 C 6,1 km/h (2 Bft)
11.02.2014 02:40 3,1 C 84 % 1003,9 hPa 0,0 l/m 6,0 km/h (2 Bft) O-SO 112 0,7 C 2,1 C 13,7 km/h (3 Bft)
11.02.2014 02:45 3,1 C 83 % 1004,1 hPa 0,0 l/m 6,6 km/h (2 Bft) S-SO 157 0,5 C 1,7 C 8,5 km/h (2 Bft)
11.02.2014 02:50 3,0 C 83 % 1004,1 hPa 0,0 l/m 6,6 km/h (2 Bft) O-SO 112 0,4 C 1,5 C 12,4 km/h (3 Bft)
11.02.2014 02:55 3,0 C 83 % 1004,1 hPa 0,0 l/m 6,3 km/h (2 Bft) S 180 0,4 C 1,6 C 6,9 km/h (2 Bft)
11.02.2014 03:00 2,7 C 84 % 1004,1 hPa 0,0 l/m 6,6 km/h (2 Bft) S 180 0,3 C 1,2 C 6,6 km/h (2 Bft)
11.02.2014 03:05 2,7 C 84 % 1004,3 hPa 0,0 l/m 6,1 km/h (2 Bft) S 180 0,3 C 1,5 C 7,2 km/h (2 Bft)
11.02.2014 03:10 2,6 C 85 % 1004,3 hPa 0,0 l/m 6,4 km/h (2 Bft) S 180 0,3 C 1,5 C 8,2 km/h (2 Bft)
11.02.2014 03:15 2,7 C 85 % 1004,3 hPa 0,0 l/m 6,8 km/h (2 Bft) S 180 0,4 C 1,0 C 6,6 km/h (2 Bft)
11.02.2014 03:20 2,7 C 85 % 1004,3 hPa 0,0 l/m 6,8 km/h (2 Bft) S-SO 157 0,4 C 1,0 C 11,6 km/h (2 Bft)
11.02.2014 03:25 2,7 C 85 % 1004,6 hPa 0,0 l/m 6,8 km/h (2 Bft) SO 135 0,4 C 1,2 C 6,1 km/h (2 Bft)
11.02.2014 03:30 2,7 C 85 % 1004,6 hPa 0,0 l/m 6,4 km/h (2 Bft) S-SW 202 0,4 C 1,6 C 10,1 km/h (2 Bft)
11.02.2014 03:35 2,8 C 86 % 1004,6 hPa 0,0 l/m 6,3 km/h (2 Bft) S 180 0,7 C 1,8 C 7,9 km/h (2 Bft)
11.02.2014 03:40 3,0 C 85 % 1004,6 hPa 0,0 l/m 8,9 km/h (2 Bft) SO 135 0,7 C -1,2 C 22,9 km/h (4 Bft)
11.02.2014 03:45 3,0 C 84 % 1005,1 hPa 0,0 l/m 10,1 km/h (2 Bft) S 180 0,6 C -2,5 C 17,5 km/h (3 Bft)
11.02.2014 03:50 2,9 C 85 % 1005,1 hPa 0,0 l/m 11,1 km/h (2 Bft) S-SO 157 0,6 C -3,9 C 12,4 km/h (3 Bft)
11.02.2014 03:55 2,8 C 85 % 1005,1 hPa 0,0 l/m 11,4 km/h (2 Bft) S 180 0,5 C -4,3 C 9,3 km/h (2 Bft)
11.02.2014 04:00 2,7 C 85 % 1005,1 hPa 0,0 l/m 10,5 km/h (2 Bft) S 180 0,4 C -3,6 C 6,8 km/h (2 Bft)
11.02.2014 04:05 2,7 C 85 % 1005,4 hPa 0,0 l/m 10,1 km/h (2 Bft) SO 135 0,4 C -3,3 C 11,3 km/h (2 Bft)
11.02.2014 04:10 2,6 C 85 % 1005,4 hPa 0,0 l/m 9,7 km/h (2 Bft) S-SO 157 0,3 C -2,8 C 11,3 km/h (2 Bft)
11.02.2014 04:15 2,6 C 86 % 1005,4 hPa 0,0 l/m 8,5 km/h (2 Bft) S 180 0,5 C -1,4 C 8,7 km/h (2 Bft)
11.02.2014 04:20 2,7 C 86 % 1005,4 hPa 0,0 l/m 7,6 km/h (2 Bft) S 180 0,6 C -0,3 C 8,5 km/h (2 Bft)
11.02.2014 04:25 2,5 C 86 % 1005,8 hPa 0,0 l/m 7,2 km/h (2 Bft) S-SW 202 0,4 C -0,0 C 7,4 km/h (2 Bft)
11.02.2014 04:30 2,6 C 85 % 1005,8 hPa 0,0 l/m 9,0 km/h (2 Bft) N 360 0,3 C -2,3 C 12,7 km/h (3 Bft)
11.02.2014 04:35 2,5 C 85 % 1005,8 hPa 0,0 l/m 10,1 km/h (2 Bft) S-SW 202 0,2 C -3,5 C 7,1 km/h (2 Bft)
11.02.2014 04:40 2,5 C 85 % 1005,8 hPa 0,0 l/m 9,3 km/h (2 Bft) S 180 0,2 C -2,6 C 17,2 km/h (3 Bft)
11.02.2014 04:45 2,4 C 85 % 1006,4 hPa 0,0 l/m 9,0 km/h (2 Bft) S 180 0,1 C -2,4 C 18,8 km/h (3 Bft)
11.02.2014 04:50 2,3 C 85 % 1006,4 hPa 0,0 l/m 10,3 km/h (2 Bft) S 180 0,0 C -4,0 C 12,9 km/h (3 Bft)
11.02.2014 04:55 2,3 C 85 % 1006,4 hPa 0,0 l/m 10,3 km/h (2 Bft) S 180 0,0 C -4,4 C 11,7 km/h (2 Bft)
11.02.2014 05:00 2,2 C 85 % 1006,4 hPa 0,0 l/m 10,3 km/h (2 Bft) S-SO 157 -0,1 C -4,5 C 13,2 km/h (3 Bft)
11.02.2014 05:05 2,0 C 85 % 1006,6 hPa 0,0 l/m 10,0 km/h (2 Bft) S-SO 157 -0,3 C -4,2 C 12,2 km/h (2 Bft)
11.02.2014 05:10 1,9 C 86 % 1006,6 hPa 0,0 l/m 10,0 km/h (2 Bft) S-SW 202 -0,2 C -4,3 C 7,1 km/h (2 Bft)
11.02.2014 05:15 1,8 C 86 % 1006,6 hPa 0,0 l/m 9,3 km/h (2 Bft) S-SO 157 -0,3 C -3,8 C 13,8 km/h (3 Bft)
11.02.2014 05:20 1,6 C 87 % 1006,6 hPa 0,0 l/m 8,7 km/h (2 Bft) SO 135 -0,3 C -3,3 C 12,2 km/h (2 Bft)
11.02.2014 05:25 1,6 C 87 % 1007,1 hPa 0,0 l/m 9,5 km/h (2 Bft) SW 225 -0,3 C -4,3 C 11,7 km/h (2 Bft)
11.02.2014 05:30 1,5 C 89 % 1007,1 hPa 0,0 l/m 9,3 km/h (2 Bft) S 180 -0,1 C -4,2 C 17,2 km/h (3 Bft)
11.02.2014 05:35 1,6 C 89 % 1007,1 hPa 0,0 l/m 10,0 km/h (2 Bft) S 180 -0,0 C -5,0 C 15,1 km/h (3 Bft)
11.02.2014 05:40 1,5 C 90 % 1007,1 hPa 0,0 l/m 12,1 km/h (2 Bft) S 180 0,0 C -7,3 C 22,2 km/h (4 Bft)
11.02.2014 05:45 1,5 C 90 % 1007,9 hPa 0,0 l/m 11,7 km/h (2 Bft) S 180 0,0 C -6,8 C 15,8 km/h (3 Bft)
11.02.2014 05:50 1,4 C 91 % 1007,9 hPa 0,0 l/m 12,6 km/h (3 Bft) S-SO 157 0,1 C -7,8 C 13,7 km/h (3 Bft)
11.02.2014 05:55 1,4 C 91 % 1007,9 hPa 0,0 l/m 11,9 km/h (2 Bft) S-SO 157 0,1 C -7,1 C 11,3 km/h (2 Bft)
11.02.2014 06:00 1,3 C 91 % 1007,9 hPa 0,0 l/m 12,4 km/h (3 Bft) SO 135 -0,0 C -7,8 C 14,8 km/h (3 Bft)
11.02.2014 06:05 1,3 C 91 % 1008,4 hPa 0,0 l/m 11,9 km/h (2 Bft) S 180 -0,0 C -7,3 C 15,3 km/h (3 Bft)
11.02.2014 06:10 1,2 C 91 % 1008,4 hPa 0,0 l/m 10,9 km/h (2 Bft) S-SO 157 -0,1 C -6,5 C 14,5 km/h (3 Bft)
11.02.2014 06:15 1,1 C 91 % 1008,4 hPa 0,0 l/m 9,5 km/h (2 Bft) S-SO 157 -0,2 C -4,9 C 12,7 km/h (3 Bft)
11.02.2014 06:20 1,1 C 92 % 1008,4 hPa 0,0 l/m 9,5 km/h (2 Bft) S 180 -0,1 C -5,0 C 16,1 km/h (3 Bft)
11.02.2014 06:25 1,1 C 92 % 1008,8 hPa 0,0 l/m 10,1 km/h (2 Bft) SO 135 -0,1 C -5,7 C 13,2 km/h (3 Bft)
11.02.2014 06:30 1,0 C 92 % 1008,8 hPa 0,0 l/m 8,9 km/h (2 Bft) S-SO 157 -0,2 C -4,4 C 8,2 km/h (2 Bft)
11.02.2014 06:35 0,9 C 92 % 1008,8 hPa 0,0 l/m 7,9 km/h (2 Bft) S 180 -0,2 C -3,2 C 15,9 km/h (3 Bft)
11.02.2014 06:40 1,0 C 92 % 1008,8 hPa 0,0 l/m 9,2 km/h (2 Bft) S 180 -0,2 C -4,8 C 10,6 km/h (2 Bft)
11.02.2014 06:45 1,0 C 92 % 1008,9 hPa 0,0 l/m 9,2 km/h (2 Bft) S-SO 157 -0,2 C -4,8 C 8,7 km/h (2 Bft)
11.02.2014 06:50 1,0 C 92 % 1008,9 hPa 0,0 l/m 7,7 km/h (2 Bft) S-SO 157 -0,2 C -2,9 C 7,9 km/h (2 Bft)
11.02.2014 06:55 1,0 C 93 % 1008,9 hPa 0,0 l/m 7,6 km/h (2 Bft) S-SW 202 -0,0 C -2,7 C 6,9 km/h (2 Bft)
11.02.2014 07:00 0,9 C 93 % 1008,9 hPa 0,0 l/m 7,1 km/h (2 Bft) S 180 -0,1 C -2,2 C 10,0 km/h (2 Bft)
11.02.2014 07:05 1,0 C 93 % 1009,1 hPa 0,0 l/m 7,6 km/h (2 Bft) NW 315 -0,0 C -2,7 C 14,2 km/h (3 Bft)
11.02.2014 07:10 1,0 C 93 % 1009,1 hPa 0,0 l/m 8,2 km/h (2 Bft) S 180 -0,0 C -3,5 C 11,3 km/h (2 Bft)
11.02.2014 07:15 0,9 C 93 % 1009,1 hPa 0,0 l/m 7,6 km/h (2 Bft) S-SO 157 -0,1 C -2,7 C 6,6 km/h (2 Bft)
11.02.2014 07:20 0,9 C 93 % 1009,1 hPa 0,0 l/m 6,4 km/h (2 Bft) S 180 -0,1 C -0,9 C 8,0 km/h (2 Bft)
11.02.2014 07:25 0,9 C 93 % 1009,1 hPa 0,0 l/m 6,6 km/h (2 Bft) S 180 -0,1 C -1,2 C 8,4 km/h (2 Bft)
11.02.2014 07:30 0,9 C 93 % 1009,1 hPa 0,0 l/m 6,4 km/h (2 Bft) S 180 -0,1 C -0,9 C 6,9 km/h (2 Bft)
11.02.2014 07:35 0,9 C 93 % 1009,1 hPa 0,0 l/m 6,1 km/h (2 Bft) S-SO 157 -0,1 C -0,8 C 7,2 km/h (2 Bft)
11.02.2014 07:40 0,9 C 93 % 1009,1 hPa 0,0 l/m 6,8 km/h (2 Bft) S 180 -0,1 C -1,3 C 10,6 km/h (2 Bft)
11.02.2014 07:45 1,1 C 93 % 1009,4 hPa 0,0 l/m 7,1 km/h (2 Bft) S 180 0,1 C -1,6 C 7,9 km/h (2 Bft)
11.02.2014 07:50 1,0 C 93 % 1009,4 hPa 0,0 l/m 6,3 km/h (2 Bft) S-SO 157 -0,0 C -0,7 C 6,8 km/h (2 Bft)
11.02.2014 07:55 1,0 C 93 % 1009,4 hPa 0,0 l/m 5,1 km/h (1 Bft) SO 135 -0,0 C -0,2 C 5,1 km/h (1 Bft)
11.02.2014 08:00 0,9 C 93 % 1009,4 hPa 0,0 l/m 5,5 km/h (1 Bft) S-SO 157 -0,1 C -0,2 C 7,1 km/h (2 Bft)
11.02.2014 08:05 1,0 C 93 % 1009,5 hPa 0,0 l/m 5,3 km/h (1 Bft) S 180 -0,0 C -0,2 C 6,4 km/h (2 Bft)
11.02.2014 08:10 1,0 C 93 % 1009,5 hPa 0,0 l/m 5,3 km/h (1 Bft) S-SO 157 -0,0 C -0,2 C 6,9 km/h (2 Bft)
11.02.2014 08:15 1,0 C 94 % 1009,5 hPa 0,0 l/m 6,0 km/h (2 Bft) S-SO 157 0,1 C -0,3 C 6,8 km/h (2 Bft)
11.02.2014 08:20 1,0 C 94 % 1009,5 hPa 0,0 l/m 5,8 km/h (2 Bft) S 180 0,1 C -0,2 C 6,1 km/h (2 Bft)
11.02.2014 08:25 1,1 C 94 % 1009,4 hPa 0,0 l/m 5,6 km/h (1 Bft) S-SO 157 0,2 C -0,2 C 6,6 km/h (2 Bft)
11.02.2014 08:30 1,2 C 94 % 1009,4 hPa 0,0 l/m 5,3 km/h (1 Bft) S 180 0,3 C 0,1 C 7,2 km/h (2 Bft)
11.02.2014 08:35 1,2 C 93 % 1009,4 hPa 0,0 l/m 6,0 km/h (2 Bft) S 180 0,2 C -0,2 C 9,3 km/h (2 Bft)
11.02.2014 08:40 1,3 C 93 % 1009,4 hPa 0,0 l/m 6,6 km/h (2 Bft) SO 135 0,3 C -0,6 C 6,1 km/h (2 Bft)
11.02.2014 08:45 1,4 C 93 % 1009,7 hPa 0,0 l/m 6,9 km/h (2 Bft) SO 135 0,4 C -0,9 C 7,4 km/h (2 Bft)
11.02.2014 08:50 1,6 C 93 % 1009,7 hPa 0,0 l/m 7,2 km/h (2 Bft) S 180 0,6 C -1,0 C 15,4 km/h (3 Bft)
11.02.2014 08:55 1,7 C 92 % 1009,7 hPa 0,0 l/m 8,0 km/h (2 Bft) O-NO 67 0,5 C -2,0 C 9,3 km/h (2 Bft)
11.02.2014 09:00 1,8 C 91 % 1009,7 hPa 0,0 l/m 9,2 km/h (2 Bft) S-SW 202 0,5 C -3,2 C 13,7 km/h (3 Bft)
11.02.2014 09:05 1,9 C 90 % 1009,8 hPa 0,0 l/m 9,3 km/h (2 Bft) SO 135 0,4 C -3,2 C 9,3 km/h (2 Bft)
11.02.2014 09:10 1,9 C 89 % 1009,8 hPa 0,0 l/m 9,8 km/h (2 Bft) S 180 0,3 C -3,6 C 8,7 km/h (2 Bft)
11.02.2014 09:15 1,9 C 89 % 1009,8 hPa 0,0 l/m 8,7 km/h (2 Bft) SO 135 0,3 C -2,4 C 6,8 km/h (2 Bft)
11.02.2014 09:20 2,0 C 88 % 1009,8 hPa 0,0 l/m 8,0 km/h (2 Bft) S 180 0,2 C -1,4 C 8,5 km/h (2 Bft)
11.02.2014 09:25 2,1 C 87 % 1009,8 hPa 0,0 l/m 8,2 km/h (2 Bft) S 180 0,2 C -1,5 C 12,9 km/h (3 Bft)
11.02.2014 09:30 2,3 C 87 % 1009,8 hPa 0,0 l/m 8,5 km/h (2 Bft) S-SO 157 0,4 C -1,8 C 9,2 km/h (2 Bft)
11.02.2014 09:35 2,4 C 86 % 1009,8 hPa 0,0 l/m 9,3 km/h (2 Bft) SW 225 0,3 C -2,6 C 6,4 km/h (2 Bft)
11.02.2014 09:40 2,6 C 86 % 1009,8 hPa 0,0 l/m 9,2 km/h (2 Bft) SO 135 0,5 C -2,2 C 8,2 km/h (2 Bft)
11.02.2014 09:45 2,7 C 86 % 1009,9 hPa 0,0 l/m 7,7 km/h (2 Bft) SW 225 0,6 C -0,2 C 7,9 km/h (2 Bft)
11.02.2014 09:50 2,9 C 86 % 1009,9 hPa 0,0 l/m 6,9 km/h (2 Bft) S 180 0,8 C 0,9 C 7,2 km/h (2 Bft)
11.02.2014 09:55 3,0 C 83 % 1009,9 hPa 0,0 l/m 7,4 km/h (2 Bft) S-SW 202 0,4 C 0,7 C 10,0 km/h (2 Bft)
11.02.2014 10:00 3,1 C 82 % 1009,9 hPa 0,0 l/m 9,2 km/h (2 Bft) W-SW 247 0,3 C -1,4 C 11,4 km/h (2 Bft)
11.02.2014 10:05 3,0 C 80 % 1010,1 hPa 0,0 l/m 11,7 km/h (2 Bft) W-SW 247 -0,1 C -3,9 C 20,1 km/h (4 Bft)
11.02.2014 10:10 3,3 C 79 % 1010,1 hPa 0,0 l/m 12,4 km/h (3 Bft) S-SO 157 0,0 C -4,2 C 31,9 km/h (5 Bft)
11.02.2014 10:15 3,3 C 77 % 1010,1 hPa 0,0 l/m 13,2 km/h (3 Bft) S-SO 157 -0,3 C -4,9 C 18,5 km/h (3 Bft)
11.02.2014 10:20 3,4 C 77 % 1010,1 hPa 0,0 l/m 12,7 km/h (3 Bft) S 180 -0,2 C -4,4 C 7,6 km/h (2 Bft)
11.02.2014 10:25 3,5 C 76 % 1010,2 hPa 0,0 l/m 11,9 km/h (2 Bft) S-SW 202 -0,3 C -3,5 C 14,0 km/h (3 Bft)
11.02.2014 10:30 3,8 C 75 % 1010,2 hPa 0,0 l/m 10,6 km/h (2 Bft) SO 135 -0,2 C -2,0 C 9,3 km/h (2 Bft)
11.02.2014 10:35 4,2 C 74 % 1010,2 hPa 0,0 l/m 9,5 km/h (2 Bft) S-SW 202 -0,0 C -0,3 C 5,3 km/h (1 Bft)
11.02.2014 10:40 4,1 C 73 % 1010,2 hPa 0,0 l/m 9,3 km/h (2 Bft) S-SW 202 -0,3 C 1,1 C 15,9 km/h (3 Bft)
11.02.2014 10:45 4,4 C 72 % 1010,2 hPa 0,0 l/m 9,5 km/h (2 Bft) SO 135 -0,2 C 1,8 C 19,5 km/h (3 Bft)
11.02.2014 10:50 4,4 C 69 % 1010,2 hPa 0,0 l/m 9,8 km/h (2 Bft) S 180 -0,8 C 1,7 C 8,0 km/h (2 Bft)
11.02.2014 10:55 4,3 C 70 % 1010,2 hPa 0,0 l/m 9,2 km/h (2 Bft) O-SO 112 -0,7 C 2,2 C 8,2 km/h (2 Bft)
11.02.2014 11:00 4,3 C 69 % 1010,2 hPa 0,0 l/m 7,1 km/h (2 Bft) SO 135 -0,9 C 4,5 C 8,5 km/h (2 Bft)
11.02.2014 11:05 4,2 C 68 % 1010,6 hPa 0,0 l/m 7,2 km/h (2 Bft) S-SW 202 -1,2 C 4,0 C 7,4 km/h (2 Bft)
11.02.2014 11:10 4,2 C 68 % 1010,6 hPa 0,0 l/m 7,7 km/h (2 Bft) S-SW 202 -1,2 C 3,0 C 14,6 km/h (3 Bft)
11.02.2014 11:15 4,2 C 68 % 1010,6 hPa 0,0 l/m 7,2 km/h (2 Bft) S 180 -1,2 C 3,5 C 9,0 km/h (2 Bft)
11.02.2014 11:20 4,3 C 68 % 1010,6 hPa 0,0 l/m 7,2 km/h (2 Bft) S 180 -1,1 C 3,5 C 6,4 km/h (2 Bft)
11.02.2014 11:25 4,4 C 67 % 1010,1 hPa 0,0 l/m 5,8 km/h (2 Bft) S-SO 157 -1,2 C 5,2 C 5,0 km/h (1 Bft)
11.02.2014 11:30 4,5 C 67 % 1010,1 hPa 0,0 l/m 5,5 km/h (1 Bft) W-SW 247 -1,1 C 5,5 C 4,2 km/h (1 Bft)
11.02.2014 11:35 4,5 C 68 % 1010,1 hPa 0,0 l/m 6,3 km/h (2 Bft) SO 135 -0,9 C 5,7 C 7,9 km/h (2 Bft)
11.02.2014 11:40 5,1 C 67 % 1010,1 hPa 0,0 l/m 6,1 km/h (2 Bft) S 180 -0,5 C 6,3 C 9,7 km/h (2 Bft)
11.02.2014 11:45 5,4 C 64 % 1010,1 hPa 0,0 l/m 6,9 km/h (2 Bft) S-SW 202 -0,9 C 6,0 C 9,5 km/h (2 Bft)
11.02.2014 11:50 5,0 C 65 % 1010,1 hPa 0,0 l/m 7,6 km/h (2 Bft) S 180 -1,0 C 4,9 C 9,7 km/h (2 Bft)
11.02.2014 11:55 4,7 C 66 % 1010,1 hPa 0,0 l/m 7,9 km/h (2 Bft) S 180 -1,1 C 3,9 C 7,2 km/h (2 Bft)
11.02.2014 12:00 4,6 C 67 % 1010,1 hPa 0,0 l/m 7,2 km/h (2 Bft) S-SW 202 -1,0 C 3,6 C 6,9 km/h (2 Bft)
11.02.2014 12:05 4,5 C 67 % 1009,6 hPa 0,0 l/m 6,6 km/h (2 Bft) W-SW 247 -1,1 C 4,0 C 7,1 km/h (2 Bft)
11.02.2014 12:10 5,2 C 66 % 1009,6 hPa 0,0 l/m 7,2 km/h (2 Bft) S-SW 202 -0,6 C 3,4 C 11,6 km/h (2 Bft)
11.02.2014 12:15 5,3 C 63 % 1009,6 hPa 0,0 l/m 7,6 km/h (2 Bft) W-SW 247 -1,2 C 3,9 C 6,8 km/h (2 Bft)
11.02.2014 12:20 4,8 C 65 % 1009,6 hPa 0,0 l/m 7,7 km/h (2 Bft) S 180 -1,2 C 4,7 C 7,1 km/h (2 Bft)
11.02.2014 12:25 5,0 C 64 % 1009,6 hPa 0,0 l/m 6,9 km/h (2 Bft) S 180 -1,2 C 6,4 C 2,1 km/h (1 Bft)
11.02.2014 12:30 5,4 C 64 % 1009,6 hPa 0,0 l/m 5,6 km/h (1 Bft) W-SW 247 -0,9 C 8,7 C 7,7 km/h (2 Bft)
11.02.2014 12:33 5,2 C 64 % 1009,6 hPa 0,0 l/m 5,5 km/h (1 Bft) S 180 -1,0 C 9,2 C 7,1 km/h (2 Bft)
11.02.2014 12:35 5,2 C 64 % 1009,6 hPa 0,0 l/m 5,5 km/h (1 Bft) S 180 -1,0 C 9,2 C 7,1 km/h (2 Bft)
11.02.2014 12:40 5,1 C 66 % 1009,6 hPa 0,0 l/m 6,8 km/h (2 Bft) SW 225 -0,7 C 9,0 C 8,5 km/h (2 Bft)
11.02.2014 12:45 5,0 C 66 % 1009,7 hPa 0,0 l/m 6,6 km/h (2 Bft) S 180 -0,8 C 9,2 C 7,1 km/h (2 Bft)
11.02.2014 12:50 4,8 C 66 % 1009,7 hPa 0,0 l/m 6,4 km/h (2 Bft) W-SW 247 -1,0 C 9,4 C 6,3 km/h (2 Bft)
11.02.2014 12:55 4,8 C 67 % 1009,7 hPa 0,0 l/m 6,6 km/h (2 Bft) W-SW 247 -0,8 C 9,3 C 6,4 km/h (2 Bft)
11.02.2014 13:00 4,7 C 66 % 1009,7 hPa 0,0 l/m 6,4 km/h (2 Bft) S 180 -1,1 C 9,6 C 7,6 km/h (2 Bft)
11.02.2014 13:05 5,0 C 66 % 1009,6 hPa 0,0 l/m 6,6 km/h (2 Bft) S 180 -0,8 C 9,5 C 5,8 km/h (2 Bft)
11.02.2014 13:10 5,1 C 65 % 1009,6 hPa 0,0 l/m 6,9 km/h (2 Bft) S-SW 202 -0,9 C 9,3 C 9,5 km/h (2 Bft)
11.02.2014 13:15 5,2 C 64 % 1009,6 hPa 0,0 l/m 6,3 km/h (2 Bft) S 180 -1,0 C 10,3 C 6,4 km/h (2 Bft)
11.02.2014 13:20 6,0 C 63 % 1009,6 hPa 0,0 l/m 5,8 km/h (2 Bft) S 180 -0,5 C 11,0 C 4,2 km/h (1 Bft)
11.02.2014 13:25 6,2 C 60 % 1009,8 hPa 0,0 l/m 6,3 km/h (2 Bft) S-SO 157 -1,0 C 11,6 C 11,3 km/h (2 Bft)
11.02.2014 13:30 5,9 C 61 % 1009,8 hPa 0,0 l/m 6,4 km/h (2 Bft) SW 225 -1,0 C 10,2 C 9,3 km/h (2 Bft)
11.02.2014 13:35 6,1 C 60 % 1009,8 hPa 0,0 l/m 6,4 km/h (2 Bft) S-SW 202 -1,1 C 10,2 C 8,7 km/h (2 Bft)
11.02.2014 13:40 6,0 C 60 % 1009,8 hPa 0,0 l/m 5,8 km/h (2 Bft) S 180 -1,2 C 10,7 C 5,8 km/h (2 Bft)
11.02.2014 13:45 5,9 C 62 % 1009,6 hPa 0,0 l/m 5,8 km/h (2 Bft) S-SW 202 -0,8 C 9,3 C 8,0 km/h (2 Bft)
11.02.2014 13:50 5,9 C 60 % 1009,6 hPa 0,0 l/m 5,5 km/h (1 Bft) O 90 -1,3 C 9,1 C 6,6 km/h (2 Bft)
11.02.2014 13:55 6,3 C 60 % 1009,6 hPa 0,0 l/m 4,0 km/h (1 Bft) S-SW 202 -0,9 C 10,0 C 6,9 km/h (2 Bft)
11.02.2014 14:00 7,4 C 57 % 1009,6 hPa 0,0 l/m 3,1 km/h (1 Bft) S-SW 202 -0,5 C 11,9 C 6,3 km/h (2 Bft)
11.02.2014 14:05 7,7 C 55 % 1009,1 hPa 0,0 l/m 4,0 km/h (1 Bft) S-SW 202 -0,8 C 12,7 C 6,4 km/h (2 Bft)
11.02.2014 14:10 8,5 C 54 % 1009,1 hPa 0,0 l/m 5,1 km/h (1 Bft) W-NW 292 -0,3 C 12,7 C 7,1 km/h (2 Bft)
11.02.2014 14:15 8,8 C 53 % 1009,1 hPa 0,0 l/m 5,6 km/h (1 Bft) W-SW 247 -0,2 C 12,7 C 7,6 km/h (2 Bft)
11.02.2014 14:20 7,4 C 51 % 1009,1 hPa 0,0 l/m 5,8 km/h (2 Bft) W 270 -2,1 C 11,8 C 7,2 km/h (2 Bft)
11.02.2014 14:25 7,2 C 52 % 1009,0 hPa 0,0 l/m 5,6 km/h (1 Bft) W 270 -2,0 C 10,4 C 6,9 km/h (2 Bft)
11.02.2014 14:30 6,4 C 54 % 1009,0 hPa 0,0 l/m 5,3 km/h (1 Bft) W 270 -2,2 C 8,5 C 4,8 km/h (1 Bft)
11.02.2014 14:35 5,8 C 57 % 1009,0 hPa 0,0 l/m 5,0 km/h (1 Bft) S-SW 202 -2,0 C 7,5 C 5,0 km/h (1 Bft)
11.02.2014 14:40 5,2 C 59 % 1009,0 hPa 0,0 l/m 2,7 km/h (1 Bft) N-NW 337 -2,1 C 7,0 C 0,0 km/h (0 Bft)
11.02.2014 14:45 4,9 C 60 % 1008,6 hPa 0,0 l/m 1,6 km/h (1 Bft) W-NW 292 -2,2 C 6,6 C 3,1 km/h (1 Bft)
11.02.2014 14:50 4,7 C 61 % 1008,6 hPa 0,0 l/m 1,3 km/h (1 Bft) N 360 -2,2 C 6,0 C 1,6 km/h (1 Bft)
11.02.2014 14:55 4,9 C 62 % 1008,6 hPa 0,0 l/m 1,3 km/h (1 Bft) NO 45 -1,8 C 5,8 C 0,0 km/h (0 Bft)
11.02.2014 15:00 6,0 C 59 % 1008,6 hPa 0,0 l/m 1,0 km/h (0 Bft) O-NO 67 -1,4 C 7,1 C 1,9 km/h (1 Bft)
11.02.2014 15:05 6,4 C 57 % 1008,1 hPa 0,0 l/m 1,0 km/h (0 Bft) NO 45 -1,5 C 8,2 C 2,4 km/h (1 Bft)
11.02.2014 15:10 6,1 C 56 % 1008,1 hPa 0,0 l/m 1,1 km/h (1 Bft) NO 45 -2,0 C 8,2 C 0,0 km/h (0 Bft)
11.02.2014 15:15 6,2 C 56 % 1008,1 hPa 0,0 l/m 0,8 km/h (0 Bft) NO 45 -1,9 C 8,0 C 0,0 km/h (0 Bft)
11.02.2014 15:20 6,3 C 57 % 1008,1 hPa 0,0 l/m 0,0 km/h (0 Bft) O-NO 67 -1,6 C 8,2 C 0,0 km/h (0 Bft)
11.02.2014 15:25 5,9 C 58 % 1007,9 hPa 0,0 l/m 0,5 km/h (0 Bft) O-SO 112 -1,7 C 8,0 C 0,0 km/h (0 Bft)
11.02.2014 15:30 5,6 C 58 % 1007,9 hPa 0,0 l/m 0,8 km/h (0 Bft) W 270 -2,0 C 7,2 C 2,3 km/h (1 Bft)
11.02.2014 15:35 5,1 C 59 % 1007,9 hPa 0,0 l/m 1,3 km/h (1 Bft) NO 45 -2,2 C 6,6 C 3,2 km/h (1 Bft)
11.02.2014 15:40 5,0 C 59 % 1007,9 hPa 0,0 l/m 2,1 km/h (1 Bft) O 90 -2,3 C 6,1 C 4,0 km/h (1 Bft)
11.02.2014 15:45 5,2 C 59 % 1007,8 hPa 0,0 l/m 2,6 km/h (1 Bft) NO 45 -2,1 C 6,2 C 4,8 km/h (1 Bft)
11.02.2014 15:50 5,9 C 59 % 1007,8 hPa 0,0 l/m 2,6 km/h (1 Bft) N 360 -1,5 C 7,0 C 4,0 km/h (1 Bft)
11.02.2014 15:55 5,8 C 58 % 1007,8 hPa 0,0 l/m 2,6 km/h (1 Bft) W 270 -1,8 C 7,5 C 2,7 km/h (1 Bft)
11.02.2014 16:00 5,9 C 58 % 1007,8 hPa 0,0 l/m 1,9 km/h (1 Bft) W-NW 292 -1,7 C 7,8 C 2,3 km/h (1 Bft)
11.02.2014 16:05 5,9 C 58 % 1007,6 hPa 0,0 l/m 2,6 km/h (1 Bft) W 270 -1,7 C 8,0 C 6,8 km/h (2 Bft)
11.02.2014 16:10 6,0 C 58 % 1007,6 hPa 0,0 l/m 4,0 km/h (1 Bft) W-NW 292 -1,6 C 7,5 C 6,0 km/h (2 Bft)
11.02.2014 16:15 5,9 C 59 % 1007,6 hPa 0,0 l/m 5,0 km/h (1 Bft) W-NW 292 -1,5 C 6,7 C 7,6 km/h (2 Bft)
11.02.2014 16:20 5,5 C 59 % 1007,6 hPa 0,0 l/m 5,6 km/h (1 Bft) W 270 -1,9 C 5,8 C 8,0 km/h (2 Bft)
11.02.2014 16:25 5,3 C 59 % 1007,8 hPa 0,0 l/m 5,8 km/h (2 Bft) W 270 -2,0 C 5,4 C 6,8 km/h (2 Bft)
11.02.2014 16:30 5,1 C 59 % 1007,8 hPa 0,0 l/m 4,3 km/h (1 Bft) W-NW 292 -2,2 C 5,6 C 3,7 km/h (1 Bft)
11.02.2014 16:35 5,0 C 60 % 1007,8 hPa 0,0 l/m 3,5 km/h (1 Bft) NW 315 -2,1 C 5,7 C 2,1 km/h (1 Bft)
11.02.2014 16:40 4,7 C 62 % 1007,8 hPa 0,0 l/m 3,4 km/h (1 Bft) N 360 -1,9 C 5,7 C 5,3 km/h (1 Bft)
11.02.2014 16:45 4,6 C 62 % 1007,6 hPa 0,0 l/m 3,2 km/h (1 Bft) N 360 -2,0 C 5,6 C 2,4 km/h (1 Bft)
11.02.2014 16:50 4,4 C 63 % 1007,6 hPa 0,0 l/m 2,7 km/h (1 Bft) NO 45 -2,0 C 5,5 C 1,8 km/h (1 Bft)
11.02.2014 16:55 4,3 C 63 % 1007,6 hPa 0,0 l/m 1,8 km/h (1 Bft) NO 45 -2,1 C 5,3 C 0,0 km/h (0 Bft)
11.02.2014 17:00 4,2 C 64 % 1007,6 hPa 0,0 l/m 1,6 km/h (1 Bft) O-NO 67 -2,0 C 5,2 C 4,0 km/h (1 Bft)
11.02.2014 17:05 4,1 C 65 % 1007,5 hPa 0,0 l/m 1,6 km/h (1 Bft) O-NO 67 -1,9 C 5,1 C 0,0 km/h (0 Bft)
11.02.2014 17:10 3,9 C 65 % 1007,5 hPa 0,0 l/m 1,0 km/h (0 Bft) N 360 -2,1 C 4,8 C 0,0 km/h (0 Bft)
11.02.2014 17:15 3,9 C 65 % 1007,5 hPa 0,0 l/m 0,8 km/h (0 Bft) O-NO 67 -2,1 C 4,7 C 3,2 km/h (1 Bft)
11.02.2014 17:20 3,8 C 66 % 1007,5 hPa 0,0 l/m 1,8 km/h (1 Bft) O-NO 67 -2,0 C 4,5 C 3,4 km/h (1 Bft)
11.02.2014 17:25 3,7 C 66 % 1007,4 hPa 0,0 l/m 1,9 km/h (1 Bft) O 90 -2,0 C 4,4 C 2,1 km/h (1 Bft)
11.02.2014 17:29 3,6 C 66 % 1007,4 hPa 0,0 l/m 2,6 km/h (1 Bft) O-NO 67 -2,1 C 4,2 C 3,4 km/h (1 Bft)
11.02.2014 17:30 3,6 C 66 % 1007,4 hPa 0,0 l/m 2,6 km/h (1 Bft) O-NO 67 -2,1 C 4,2 C 3,4 km/h (1 Bft)
11.02.2014 17:35 3,4 C 66 % 1007,4 hPa 0,0 l/m 3,1 km/h (1 Bft) NO 45 -2,3 C 3,9 C 4,3 km/h (1 Bft)
11.02.2014 17:40 3,2 C 67 % 1007,4 hPa 0,0 l/m 3,2 km/h (1 Bft) O-NO 67 -2,3 C 3,5 C 2,6 km/h (1 Bft)
11.02.2014 17:45 3,0 C 67 % 1007,4 hPa 0,0 l/m 3,4 km/h (1 Bft) O-NO 67 -2,5 C 3,1 C 3,4 km/h (1 Bft)
11.02.2014 17:50 2,7 C 68 % 1007,4 hPa 0,0 l/m 3,4 km/h (1 Bft) NO 45 -2,6 C 2,5 C 2,6 km/h (1 Bft)
11.02.2014 17:55 2,4 C 68 % 1007,4 hPa 0,0 l/m 3,1 km/h (1 Bft) NO 45 -2,9 C 2,2 C 3,2 km/h (1 Bft)
11.02.2014 18:00 2,2 C 69 % 1007,4 hPa 0,0 l/m 3,7 km/h (1 Bft) NO 45 -2,9 C 1,3 C 6,3 km/h (2 Bft)
11.02.2014 18:05 2,1 C 69 % 1007,4 hPa 0,0 l/m 4,7 km/h (1 Bft) O-NO 67 -3,0 C 0,8 C 5,8 km/h (2 Bft)
11.02.2014 18:10 2,0 C 71 % 1007,4 hPa 0,0 l/m 4,8 km/h (1 Bft) O-NO 67 -2,7 C 0,5 C 4,8 km/h (1 Bft)
11.02.2014 18:15 1,8 C 71 % 1007,4 hPa 0,0 l/m 4,3 km/h (1 Bft) NO 45 -2,9 C 0,6 C 5,1 km/h (1 Bft)
11.02.2014 18:20 1,6 C 72 % 1007,4 hPa 0,0 l/m 4,2 km/h (1 Bft) O-NO 67 -2,9 C 0,4 C 4,8 km/h (1 Bft)
11.02.2014 18:25 1,6 C 72 % 1007,2 hPa 0,0 l/m 4,0 km/h (1 Bft) O 90 -2,9 C 0,3 C 3,7 km/h (1 Bft)
11.02.2014 18:30 1,6 C 72 % 1007,2 hPa 0,0 l/m 3,5 km/h (1 Bft) O-NO 67 -2,9 C 0,2 C 3,7 km/h (1 Bft)
11.02.2014 18:35 1,5 C 73 % 1007,2 hPa 0,0 l/m 3,2 km/h (1 Bft) O-NO 67 -2,8 C 0,3 C 2,6 km/h (1 Bft)
11.02.2014 18:40 1,3 C 73 % 1007,2 hPa 0,0 l/m 2,3 km/h (1 Bft) O-NO 67 -3,0 C 0,5 C 2,7 km/h (1 Bft)
11.02.2014 18:45 1,2 C 73 % 1007,3 hPa 0,0 l/m 2,1 km/h (1 Bft) NO 45 -3,1 C 0,2 C 3,5 km/h (1 Bft)
11.02.2014 18:50 0,8 C 73 % 1007,3 hPa 0,0 l/m 1,6 km/h (1 Bft) O-SO 112 -3,5 C -0,1 C 0,0 km/h (0 Bft)
11.02.2014 18:55 0,0 C 73 % 1007,3 hPa 0,0 l/m 1,1 km/h (1 Bft) S 180 -4,2 C -0,6 C 1,8 km/h (1 Bft)
11.02.2014 19:00 -0,5 C 75 % 1007,3 hPa 0,0 l/m 0,6 km/h (0 Bft) S 180 -4,4 C -0,9 C 0,0 km/h (0 Bft)
11.02.2014 19:05 -0,4 C 76 % 1007,4 hPa 0,0 l/m 1,1 km/h (1 Bft) O-SO 112 -4,1 C -1,3 C 3,2 km/h (1 Bft)
11.02.2014 19:10 0,0 C 77 % 1007,4 hPa 0,0 l/m 1,8 km/h (1 Bft) O-SO 112 -3,5 C -1,3 C 2,4 km/h (1 Bft)
11.02.2014 19:15 0,0 C 77 % 1007,4 hPa 0,0 l/m 1,3 km/h (1 Bft) O 90 -3,5 C -1,4 C 0,0 km/h (0 Bft)
11.02.2014 19:20 0,1 C 78 % 1007,4 hPa 0,0 l/m 2,3 km/h (1 Bft) O-NO 67 -3,3 C -1,4 C 4,8 km/h (1 Bft)
11.02.2014 19:25 0,2 C 78 % 1007,4 hPa 0,0 l/m 3,5 km/h (1 Bft) O-SO 112 -3,2 C -2,2 C 4,0 km/h (1 Bft)
11.02.2014 19:30 0,1 C 78 % 1007,4 hPa 0,0 l/m 3,4 km/h (1 Bft) O-NO 67 -3,3 C -2,2 C 1,8 km/h (1 Bft)
11.02.2014 19:35 -0,1 C 78 % 1007,4 hPa 0,0 l/m 1,9 km/h (1 Bft) O 90 -3,5 C -1,5 C 0,0 km/h (0 Bft)
11.02.2014 19:40 0,0 C 79 % 1007,4 hPa 0,0 l/m 2,3 km/h (1 Bft) O-NO 67 -3,2 C -1,7 C 5,1 km/h (1 Bft)
11.02.2014 19:45 0,1 C 79 % 1007,6 hPa 0,0 l/m 3,2 km/h (1 Bft) NO 45 -3,1 C -2,4 C 3,5 km/h (1 Bft)
11.02.2014 19:50 0,0 C 79 % 1007,6 hPa 0,0 l/m 4,0 km/h (1 Bft) O 90 -3,2 C -2,9 C 5,3 km/h (1 Bft)
11.02.2014 19:55 0,0 C 79 % 1007,6 hPa 0,0 l/m 4,5 km/h (1 Bft) O-SO 112 -3,2 C -3,1 C 4,2 km/h (1 Bft)
11.02.2014 20:00 -1,1 C 78 % 1007,6 hPa 0,0 l/m 2,3 km/h (1 Bft) O-SO 112 -4,4 C -1,8 C 0,0 km/h (0 Bft)
11.02.2014 20:05 -1,6 C 78 % 1007,8 hPa 0,0 l/m 0,5 km/h (0 Bft) O-SO 112 -4,9 C -2,2 C 0,0 km/h (0 Bft)
11.02.2014 20:10 -2,1 C 78 % 1007,8 hPa 0,0 l/m 0,0 km/h (0 Bft) O-SO 112 -5,4 C -2,7 C 0,0 km/h (0 Bft)
11.02.2014 20:15 -2,1 C 79 % 1007,8 hPa 0,0 l/m 0,0 km/h (0 Bft) O 90 -5,2 C -3,0 C 2,1 km/h (1 Bft)
11.02.2014 20:20 -1,1 C 82 % 1007,8 hPa 0,0 l/m 0,8 km/h (0 Bft) O 90 -3,8 C -3,0 C 4,8 km/h (1 Bft)
11.02.2014 20:25 -1,4 C 82 % 1007,6 hPa 0,0 l/m 1,3 km/h (1 Bft) O-SO 112 -4,1 C -2,8 C 0,0 km/h (0 Bft)
11.02.2014 20:30 -0,9 C 82 % 1007,6 hPa 0,0 l/m 2,6 km/h (1 Bft) NO 45 -3,6 C -3,2 C 6,8 km/h (2 Bft)
11.02.2014 20:35 -0,9 C 82 % 1007,6 hPa 0,0 l/m 4,0 km/h (1 Bft) O-NO 67 -3,6 C -3,8 C 7,2 km/h (2 Bft)
11.02.2014 20:40 -1,0 C 82 % 1007,6 hPa 0,0 l/m 5,5 km/h (1 Bft) O 90 -3,7 C -4,1 C 4,0 km/h (1 Bft)
11.02.2014 20:45 -1,4 C 82 % 1007,4 hPa 0,0 l/m 3,4 km/h (1 Bft) O-SO 112 -4,1 C -3,2 C 0,0 km/h (0 Bft)
11.02.2014 20:50 -1,9 C 82 % 1007,4 hPa 0,0 l/m 0,8 km/h (0 Bft) NO 45 -4,6 C -2,6 C 0,0 km/h (0 Bft)
11.02.2014 20:55 -1,3 C 83 % 1007,4 hPa 0,0 l/m 1,1 km/h (1 Bft) O-SO 112 -3,8 C -2,9 C 3,9 km/h (1 Bft)
11.02.2014 21:00 -1,4 C 83 % 1007,4 hPa 0,0 l/m 2,9 km/h (1 Bft) NO 45 -3,9 C -3,4 C 4,7 km/h (1 Bft)
11.02.2014 21:05 -1,5 C 83 % 1007,4 hPa 0,0 l/m 2,7 km/h (1 Bft) O 90 -4,0 C -3,3 C 3,5 km/h (1 Bft)
11.02.2014 21:10 -1,5 C 83 % 1007,4 hPa 0,0 l/m 3,1 km/h (1 Bft) NO 45 -4,0 C -3,6 C 3,4 km/h (1 Bft)
11.02.2014 21:15 -1,7 C 83 % 1007,4 hPa 0,0 l/m 2,9 km/h (1 Bft) O-SO 112 -4,2 C -3,4 C 0,0 km/h (0 Bft)
11.02.2014 21:20 -1,6 C 84 % 1007,4 hPa 0,0 l/m 3,4 km/h (1 Bft) NO 45 -3,9 C -3,8 C 6,3 km/h (2 Bft)
11.02.2014 21:25 -1,7 C 84 % 1007,4 hPa 0,0 l/m 3,9 km/h (1 Bft) O 90 -4,0 C -4,0 C 3,4 km/h (1 Bft)
11.02.2014 21:30 -1,8 C 84 % 1007,4 hPa 0,0 l/m 3,4 km/h (1 Bft) NO 45 -4,1 C -3,9 C 1,9 km/h (1 Bft)
11.02.2014 21:35 -1,8 C 84 % 1007,4 hPa 0,0 l/m 2,1 km/h (1 Bft) O-NO 67 -4,1 C -3,1 C 0,0 km/h (0 Bft)
11.02.2014 21:40 -2,6 C 83 % 1007,4 hPa 0,0 l/m 0,6 km/h (0 Bft) N-NO 22 -5,1 C -3,3 C 0,0 km/h (0 Bft)
11.02.2014 21:45 -2,8 C 83 % 1007,1 hPa 0,0 l/m 0,0 km/h (0 Bft) N-NO 22 -5,3 C -3,4 C 0,0 km/h (0 Bft)
11.02.2014 21:50 -3,3 C 83 % 1007,1 hPa 0,0 l/m 0,0 km/h (0 Bft) O 90 -5,8 C -3,4 C 0,0 km/h (0 Bft)
11.02.2014 21:55 -3,2 C 83 % 1007,1 hPa 0,0 l/m 0,0 km/h (0 Bft) O-NO 67 -5,7 C -3,7 C 0,0 km/h (0 Bft)
11.02.2014 22:00 -3,3 C 83 % 1007,1 hPa 0,0 l/m 0,0 km/h (0 Bft) SO 135 -5,8 C -3,7 C 0,0 km/h (0 Bft)
11.02.2014 22:05 -3,1 C 84 % 1007,1 hPa 0,0 l/m 0,0 km/h (0 Bft) O 90 -5,4 C -3,8 C 0,0 km/h (0 Bft)
11.02.2014 22:10 -3,5 C 84 % 1007,1 hPa 0,0 l/m 0,0 km/h (0 Bft) N-NO 22 -5,8 C -3,8 C 0,0 km/h (0 Bft)
11.02.2014 22:15 -3,3 C 84 % 1007,1 hPa 0,0 l/m 0,0 km/h (0 Bft) N-NO 22 -5,6 C -3,9 C 0,0 km/h (0 Bft)
11.02.2014 22:20 -3,5 C 84 % 1007,1 hPa 0,0 l/m 0,0 km/h (0 Bft) O 90 -5,8 C -3,9 C 0,0 km/h (0 Bft)
11.02.2014 22:25 -3,3 C 85 % 1007,1 hPa 0,0 l/m 0,3 km/h (0 Bft) SO 135 -5,5 C -4,0 C 0,0 km/h (0 Bft)
11.02.2014 22:28 -3,2 C 85 % 1007,1 hPa 0,0 l/m 0,5 km/h (0 Bft) N-NO 22 -5,4 C -3,9 C 0,0 km/h (0 Bft)
11.02.2014 22:30 -3,2 C 85 % 1007,1 hPa 0,0 l/m 0,5 km/h (0 Bft) N-NO 22 -5,4 C -3,9 C 0,0 km/h (0 Bft)
11.02.2014 22:35 -3,6 C 85 % 1007,1 hPa 0,0 l/m 0,3 km/h (0 Bft) N-NO 22 -5,7 C -3,8 C 0,0 km/h (0 Bft)
11.02.2014 22:40 -3,9 C 85 % 1007,1 hPa 0,0 l/m 0,2 km/h (0 Bft) NO 45 -6,0 C -3,8 C 0,0 km/h (0 Bft)
11.02.2014 22:45 -3,7 C 85 % 1007,2 hPa 0,0 l/m 0,2 km/h (0 Bft) O-NO 67 -5,8 C -4,1 C 0,0 km/h (0 Bft)
11.02.2014 22:50 -3,9 C 85 % 1007,2 hPa 0,0 l/m 0,0 km/h (0 Bft) N-NO 22 -6,0 C -4,2 C 0,0 km/h (0 Bft)
11.02.2014 22:55 -4,0 C 85 % 1007,2 hPa 0,0 l/m 0,0 km/h (0 Bft) O 90 -6,1 C -4,2 C 0,0 km/h (0 Bft)
11.02.2014 23:00 -4,1 C 85 % 1007,2 hPa 0,0 l/m 0,0 km/h (0 Bft) NO 45 -6,2 C -4,4 C 0,0 km/h (0 Bft)
11.02.2014 23:05 -4,3 C 85 % 1007,1 hPa 0,0 l/m 0,0 km/h (0 Bft) O-SO 112 -6,4 C -4,6 C 0,0 km/h (0 Bft)
11.02.2014 23:10 -3,9 C 85 % 1007,1 hPa 0,0 l/m 0,0 km/h (0 Bft) N-NO 22 -6,0 C -4,6 C 0,0 km/h (0 Bft)
11.02.2014 23:15 -4,1 C 85 % 1007,1 hPa 0,0 l/m 0,0 km/h (0 Bft) N-NO 22 -6,2 C -4,4 C 0,0 km/h (0 Bft)
11.02.2014 23:20 -3,9 C 86 % 1007,1 hPa 0,0 l/m 0,0 km/h (0 Bft) O 90 -5,9 C -4,6 C 0,0 km/h (0 Bft)
11.02.2014 23:25 -4,2 C 85 % 1007,2 hPa 0,0 l/m 0,0 km/h (0 Bft) NO 45 -6,3 C -4,6 C 0,0 km/h (0 Bft)
11.02.2014 23:30 -3,9 C 86 % 1007,2 hPa 0,0 l/m 0,2 km/h (0 Bft) N-NO 22 -5,9 C -4,6 C 2,1 km/h (1 Bft)
11.02.2014 23:35 -4,1 C 86 % 1007,2 hPa 0,0 l/m 0,3 km/h (0 Bft) O-SO 112 -6,1 C -4,4 C 0,0 km/h (0 Bft)
11.02.2014 23:40 -3,8 C 86 % 1007,2 hPa 0,0 l/m 0,3 km/h (0 Bft) S 180 -5,8 C -4,2 C 0,0 km/h (0 Bft)
11.02.2014 23:45 -3,9 C 86 % 1007,6 hPa 0,0 l/m 0,2 km/h (0 Bft) O 90 -5,9 C -4,2 C 1,8 km/h (1 Bft)
11.02.2014 23:50 -3,5 C 87 % 1007,6 hPa 0,0 l/m 0,8 km/h (0 Bft) O-NO 67 -5,3 C -3,9 C 0,0 km/h (0 Bft)
11.02.2014 23:55 -3,3 C 87 % 1007,6 hPa 0,0 l/m 1,0 km/h (0 Bft) O-SO 112 -5,1 C -3,8 C 2,3 km/h (1 Bft)
_ Min-Zeit 23:05 14:20 00:00 - 23:25 - - 23:05 06:00 23:50
Minimum _ -4,3 C 51 % 1002,1 hPa - 0,0 km/h (0 Bft) - - -6,4 C -7,8 C 0,0 km/h (0 Bft)
_ Max-Zeit 14:15 08:30 11:20 23:55 10:15 - - 01:45 14:15 10:10
Maximum _ 8,8 C 94 % 1010,6 hPa 0,0 l/m 13,2 km/h
S-SO (3 Bft)
- - 0,9 C 12,7 C 31,9 km/h
S-SO (5 Bft)
Durchschnitt _ 2,2 C 77 % 1007,5 hPa #0,0 l/m 5,4 km/h (1 Bft) S - -1,5 C 0,8 C 6,7 km/h (2 Bft)